Tracking 28091 objects as of 30-Sep-2023
HD Live streaming from Space Station
objects crossing your sky now

STARLINK-5610

Track STARLINK-5610 now!
10-day predictions
STARLINK-5610 is classified as:


NORAD ID: 57244
Int'l Code: 2023-094AC
Perigee: 565.2 km
Apogee: 567.2 km
Inclination: 43.0 °
Period: 95.8 minutes
Semi major axis: 6937 km
RCS: Unknown
Launch date: July 7, 2023
Source: United States (US)
Launch site: AIR FORCE WESTERN TEST RANGE (AFWTR)
Your satellite tracking list
Your tracking list is empty




NASA's NSSDC Master Catalog

Two Line Element Set (TLE):
1 57244U 23094AC  23273.20746964  .00001269  00000-0  10899-3 0  9993
2 57244  43.0013 181.7518 0001471 256.0113 104.0566 15.02547357 13372
Source of the keplerian elements: AFSPC